Location: Milton Keynes
(52.0316°N, 0.7531°W)
Time: 23:49:23
(UTC+00:00)

Envisat - Visible Passes

Search period start: 04 December 2023 00:00
Search period end: 14 December 2023 00:00
Orbit: 762 x 764 km, 98.3° (Epoch: 04 December)

Date Brightness Start Highest point End Pass type
(mag) Time Alt. Az. Time Alt. Az. Time Alt. Az.
04 Dec 5.6 03:54:44 10° NNE 03:54:52 11° NNE 03:54:52 11° NNE visible
04 Dec 5.2 05:34:47 10° NNW 05:35:02 11° NNW 05:35:02 11° NNW visible
05 Dec 5.3 04:56:52 10° N 04:57:15 12° N 04:57:15 12° N visible
06 Dec 5.5 04:19:19 10° N 04:19:29 11° N 04:19:29 11° N visible
07 Dec 5.3 05:21:45 10° N 05:21:53 10° N 05:21:53 10° N visible
08 Dec 5.4 04:43:59 10° N 04:44:07 11° N 04:44:07 11° N visible
10 Dec 6.2 16:33:30 10° W 16:34:16 10° W 16:35:02 10° WNW visible
